Погода в Усть-Чорне

Украина / Закарпатская область     48°19′08″N   23°56′33″E
темп.,
°C
ветер,
м/с
пор.,
м/с
влажн.,
%
обл.,
%
осадки,
мм/ч
давл.,
гПа
погр.,
м
18 мая, вт
вт1800:00+7вюв0098100 0.0 100310
03:00+8ююз13100100 2.8 1002154
06:00+6ю1299100 11.9 1003227
09:00+7ю1293100 13.1 1003316
12:00+6зюз1197100 0.6 1004205
15:00+6зюз1298100 3.0 1005228
18:00+6з1299100 3.9 1006280
21:00+6зюз1299100 6.1 1008127
19 мая, ср
ср1900:00+6зюз12100100 0.4 1009136
03:00+6зюз12100100 0.8 1009193
06:00+6юз12100100 0.6 1010272
09:00+6юз22100100 0.9 1011242
12:00+9юз228496 0.3 1011743
15:00+9зюз118299 0.7 1011506
18:00+11юз1172100 0.4 1010692
21:00+7св219189 0.8 101012
20 мая, чт
чт2000:00+6св2395100 0.1 101148
03:00+6всв2296100 0.1 101053
06:00+6св2298100 2.1 100864
09:00+6св2597100 9.9 1009624
12:00+5св2897100 8.6 1010854
15:00+7св1494100 10.9 1010740
18:00+6ссв2497100 1.0 1011440
21:00+5ссв2398100 3.6 1013311
21 мая, пт
пт2100:00+5ссв1399100 5.7 1013243
03:00+6с2898100 10.1 1013776
06:00+6с3997100 1.8 1014861
09:00+6ссв31095100 2.3 1016988
12:00+8ссв288350 0.1 1017853
15:00+12ссв245651 0.3 10161493
18:00+12св125390 0.1 10161541
21:00+7всв21805 0.2 101815
22 мая, сб
сб2200:00+4всв22894 0.0 101918
03:00+3всв119023 0.0 101911
06:00+4всв119393 0.0 101813
09:00+11ю226528 0.0 1016574
12:00+14ююз3448100 0.0 10151142
15:00+16ююз464635 0.0 10141487
18:00+15ююз3650100 0.0 10131268
21:00+9ююз2290100 0.0 101444